Location: Pasadena, ca
(34.1243°N, 118.1037°W)
Time: 06:48:10
(UTC-07:00)

Envisat - Pass Details

Date: 13 October 2017
Orbit: 764 x 766 km, 98.2° (Epoch: 22 October)

Event Time Altitude Azimuth Distance (km) Brightness Sun altitude
Exits shadow 19:37:12 14° 43° (NE) 2,009 4.8 -16.7°
Drops below altitude 10° 19:38:39 10° 27° (NNE) 2,306 5.2 -17.0°
Sets 19:41:43 0° 8° (N) 3,236 6.2 -17.6°
